Regional Weather Roundup
Issued by NWS

Home | Current Version | Previous Version | Graphics & Text | Print | Product List | Glossary Off
Versions: 1 2 3 4 5 6 7 8 9 10 11 12 13 14 15 16 17 18 19 20 21 22 23 24 25 26 27 28 29 30 31 32 33 34 35 36 37 38 39 40 41 42 43 44 45 46 47 48 49 50

000
ASUS43 KDMX 250407
RWRIA

WEATHER ROUNDUP FOR IOWA
NATIONAL WEATHER SERVICE DES MOINES IA
1100 PM CDT SUN MAY 24 2015

NOTE: "FAIR" INDICATES FEW OR NO CLOUDS BELOW 12,000 FEET WITH NO
SIGNIFICANT WEATHER AND/OR OBSTRUCTIONS TO VISIBILITY.

* - THESE STATIONS ARE NOT NWS STATIONS...THUS NOT UNDER NWS
QUALITY CONTROL.  THEY ALSO DO NOT REPORT WEATHER SUCH
AS PRECIPITATION OR FOG.

IAZ001>003-012>014-020>022-031>034-043>046-250500-
   NORTHWEST IOWA

CITY           SKY/WX    TMP DP  RH WIND       PRES   REMARKS
CARROLL *      CLOUDY    63  63 100 CALM      29.78S FOG
CHEROKEE *     CLOUDY    61  61 100 CALM      29.77S
DENISON *      CLOUDY    61  61 100 SE3       29.76S FOG
LE MARS *      CLOUDY    63  61  94 CALM      29.78S
ORANGE CITY *  CLOUDY    59  59 100 CALM      29.77S FOG
SHELDON *      CLOUDY    61 N/A N/A CALM      29.76S FOG
SIOUX CITY     CLOUDY    62  60  93 CALM      29.78S FOG
SPENCER        CLOUDY    62  61  96 S6        29.76S
STORM LAKE *   CLOUDY    61  61 100 SW5       29.78F
$$

IAZ055>058-069>071-079>083-090>094-250500-
   SOUTHWEST IOWA

CITY           SKY/WX    TMP DP  RH WIND       PRES   REMARKS
ATLANTIC *     CLOUDY    64  64 100 S8        29.79R
AUDUBON *      MOCLDY    64  61  88 CALM      29.79S
CLARINDA *     CLOUDY    64  63  94 CALM      29.82S
COUNCIL BLFS * MOCLDY    64  64 100 SW6       29.79S
CRESTON *      PTCLDY    63  61  94 SW8       29.81S
HARLAN  *      MOCLDY    63  63 100 CALM      29.81S
LAMONI         CLOUDY    65  61  87 S7        29.81S
RED OAK *      CLOUDY    64  63  94 S6        29.80R
SHENANDOAH *   CLOUDY    64  63  94 SE8       29.81R
$$

IAZ047>049-059>061-072>074-084-250500-
   CENTRAL IOWA

CITY           SKY/WX    TMP DP  RH WIND       PRES   REMARKS
AMES           CLOUDY    66  63  90 S9        29.78S
ANKENY *       LGT RAIN  64  64 100 SW6       29.78F
CHARITON *       N/A     64  63  94 SW5       29.81S
DES MOINES     LGT RAIN  67  63  87 SW6       29.79S
GRINNELL*      CLOUDY    64  63  94 S8        29.81S
KNOXVILLE *    CLOUDY    64  61  88 S6        29.79S
MARSHALLTOWN   CLOUDY    65  63  93 S8        29.78S
PELLA *        CLOUDY    64  64 100 S6        29.81S
PERRY *        CLOUDY    64  63  95 S5        29.77F
$$

IAZ004>006-015-016-023>025-035-036-250500-
   NORTH CENTRAL IOWA

CITY           SKY/WX    TMP DP  RH WIND       PRES   REMARKS
ALGONA *       CLOUDY    63  63 100 S6        29.77S FOG
CLARION *      MOCLDY    64  64 100 SW7       29.78R
ESTHERVILLE    CLOUDY    60  60 100 SW3       29.76R FOG
FORT DODGE *   CLOUDY    63  61  94 S3        29.78S
MASON CITY     CLOUDY    64  63  96 SE8       29.78F FOG
FOREST CITY *  CLOUDY    61  61 100 S6        29.76F FOG
IOWA FALLS *   DRIZZLE   64  63  94 SW7       29.79S
$$

IAZ007>011-017>019-026>030-037>042-050>054-066-250500-
   NORTHEAST IOWA

CITY           SKY/WX    TMP DP  RH WIND       PRES   REMARKS
CEDAR RAPIDS   CLOUDY    67  67 100 S10       29.79F
CHARLES CITY * CLOUDY    63  63 100 E8        29.79S FOG
CLINTON *      CLOUDY    70  64  83 S18G24    29.88R
DECORAH *      CLOUDY    61  61 100 E8G15     29.79F FOG
DUBUQUE        CLOUDY    65  64  97 SE8       29.83F FOG
MONTICELLO *   PTCLDY    66  66 100 SE12      29.81S
OELWEIN *      CLOUDY    66  66 100 S13G21    29.80R FOG
WATERLOO       CLOUDY    64  63  96 S3        29.78S
$$

IAZ064-065-067-068-078-250500-
   EAST CENTRAL IOWA

CITY           SKY/WX    TMP DP  RH WIND       PRES   REMARKS
DAVENPORT      CLOUDY    69  65  86 S14       29.86R
IOWA CITY      CLOUDY    67  66  97 S8        29.82S
MT. PLEASANT * CLOUDY    66  66 100 S8        29.83F
MUSCATINE *    MOCLDY    70  66  88 S10       29.83F
QUAD CITIES    CLOUDY    69  65  86 S10       29.85S
$$

IAZ062-063-075>077-085>089-095>099-250500-
   SOUTHEAST IOWA

CITY           SKY/WX    TMP DP  RH WIND       PRES   REMARKS
BURLINGTON     CLOUDY    68  66  93 S10       29.84S
FAIRFIELD *    CLOUDY    68  66  94 S7        29.82S
FORT MADISON * MOCLDY    66  64  94 SE7       29.85F
KEOKUK *       MOCLDY    68  66  94 SE6       29.83F
OSKALOOSA *    LGT RAIN  64  63  94 S6        29.81F
CENTERVILLE *  LGT RAIN  64  64 100 S8        29.83F
OTTUMWA        LGT RAIN  65  64  97 S8        29.81S
WASHINGTON *   MOCLDY    68  66  94 S12       29.83S
$$

ABBREVIATIONS USED IN REMARKS
   TC - TEMPERATURES IN CELSIUS
  WCI - WIND CHILL INDEX
   HX - HEAT INDEX
  VSB - VISIBILITY
$$



USA.gov is the U.S. government's official web portal to all federal, state and local government web resources and services.